RWZ560 UGTB-UUBW

Flight info

Callsign RWZ560
Flight time N/A
Altitude 33000
Route KUFAN DCT MKL DCT KOTOD DCT EVZUN DCT ZIZAR DCT VAZLU DCT UZZID DCT NOKLI DCT WGD G481 OBABI T619 UMRAL P163 GOLRI L736 OLOPI OLOPI2W
Aircraft SU95/M-SDE3GILORVW/S

Departure

Time N/A
Airport Tbilisi International Airport (UGTB)

Arrival

Time 2026-04-29 22:20
Airport Zhukovsky International Airport (UUBW)
Time Latitude Longitude Altitude Speed Heading
2026-04-29 20:24 44.14472 47.92575 33152 ft 480 kts
2026-04-29 20:24 44.21038 47.93860 33150 ft 480 kts
2026-04-29 20:25 44.27658 47.95158 33153 ft 481 kts
2026-04-29 20:25 44.34228 47.96450 33156 ft 481 kts
2026-04-29 20:26 44.40862 47.97757 33157 ft 482 kts
2026-04-29 20:26 44.47516 47.99070 33159 ft 482 kts
2026-04-29 20:27 44.53051 48.00133 33160 ft 482 kts
2026-04-29 20:27 44.60859 48.00143 33162 ft 481 kts 356°
2026-04-29 20:28 44.67542 47.99960 33161 ft 481 kts 356°
2026-04-29 20:28 44.74187 47.99774 33165 ft 482 kts 356°
2026-04-29 20:29 44.80891 47.99580 33160 ft 482 kts 356°
2026-04-29 20:29 44.87607 47.99385 33158 ft 483 kts 356°
2026-04-29 20:30 44.94328 47.99190 33165 ft 483 kts 356°
2026-04-29 20:30 45.01049 47.98993 33156 ft 483 kts 356°
2026-04-29 20:31 45.07785 47.98796 33157 ft 484 kts 356°
2026-04-29 20:31 45.14519 47.98599 33156 ft 484 kts 356°
2026-04-29 20:32 45.21260 47.98401 33159 ft 484 kts 356°
2026-04-29 20:32 45.27965 47.98203 33156 ft 485 kts 356°
2026-04-29 20:33 45.34628 47.98006 33157 ft 485 kts 356°
2026-04-29 20:33 45.41389 47.97806 33159 ft 486 kts 356°
2026-04-29 20:34 45.48154 47.97606 33161 ft 486 kts 356°
2026-04-29 20:34 45.54923 47.97404 33162 ft 487 kts 356°
2026-04-29 20:35 45.61712 47.97202 33161 ft 487 kts 356°
2026-04-29 20:35 45.68489 47.96999 33163 ft 488 kts 356°
2026-04-29 20:36 45.75285 47.96796 33167 ft 489 kts 356°
2026-04-29 20:36 45.82086 47.96592 33169 ft 489 kts 356°
2026-04-29 20:37 45.88857 47.96388 33170 ft 490 kts 356°
2026-04-29 20:37 45.95671 47.96183 33173 ft 490 kts 356°
2026-04-29 20:38 46.02488 47.95836 33175 ft 488 kts 349°
2026-04-29 20:38 46.05780 47.94748 33173 ft 483 kts 336°
2026-04-29 20:38 46.08818 47.92752 33173 ft 475 kts 324°
2026-04-29 20:39 46.11455 47.89966 33172 ft 467 kts 311°
2026-04-29 20:39 46.13593 47.86522 33169 ft 457 kts 299°
2026-04-29 20:39 46.16595 47.78635 33178 ft 451 kts 291°
2026-04-29 20:40 46.19676 47.70699 33184 ft 455 kts 295°
2026-04-29 20:40 46.23065 47.62941 33192 ft 458 kts 297°
2026-04-29 20:41 46.26520 47.55240 33198 ft 458 kts 297°
2026-04-29 20:41 46.29981 47.47519 33203 ft 458 kts 297°
2026-04-29 20:42 46.33462 47.39727 33204 ft 458 kts 297°
2026-04-29 20:42 46.36909 47.31982 33203 ft 458 kts 296°
2026-04-29 20:43 46.40332 47.24267 33201 ft 457 kts 296°
2026-04-29 20:43 46.43756 47.16528 33194 ft 456 kts 296°
2026-04-29 20:44 46.47165 47.08803 33190 ft 454 kts 296°
2026-04-29 20:44 46.50566 47.01072 33180 ft 453 kts 296°
2026-04-29 20:45 46.53952 46.93355 33179 ft 452 kts 296°
2026-04-29 20:45 46.57331 46.85633 33172 ft 451 kts 296°
2026-04-29 20:46 46.60670 46.77981 33166 ft 450 kts 296°
2026-04-29 20:46 46.64025 46.70272 33166 ft 450 kts 296°
2026-04-29 20:47 46.67372 46.62558 33162 ft 449 kts 295°
2026-04-29 20:47 46.70137 46.56171 33161 ft 449 kts 295°
2026-04-29 20:48 46.74026 46.47161 33165 ft 449 kts 295°
2026-04-29 20:48 46.77333 46.39476 33163 ft 449 kts 295°
2026-04-29 20:49 46.80666 46.31710 33167 ft 449 kts 295°
2026-04-29 20:49 46.83969 46.23990 33170 ft 449 kts 295°
2026-04-29 20:50 46.87271 46.16253 33176 ft 450 kts 295°
2026-04-29 20:50 46.90608 46.08535 33179 ft 453 kts 300°
2026-04-29 20:51 46.92731 46.05039 33179 ft 463 kts 311°
2026-04-29 20:51 46.95356 46.02135 33171 ft 473 kts 323°
2026-04-29 20:51 47.01283 45.97859 33171 ft 478 kts 329°
2026-04-29 20:52 47.07280 45.93674 33170 ft 479 kts 328°
2026-04-29 20:52 47.13326 45.89436 33178 ft 479 kts 328°
2026-04-29 20:53 47.19307 45.85232 33177 ft 479 kts 328°
2026-04-29 20:53 47.25302 45.81008 33178 ft 479 kts 328°
2026-04-29 20:54 47.34326 45.74629 33183 ft 479 kts 328°
2026-04-29 20:55 47.39336 45.71077 33181 ft 479 kts 328°
2026-04-29 20:55 47.46302 45.66126 33182 ft 478 kts 328°
2026-04-29 20:56 47.51323 45.62548 33181 ft 478 kts 328°
2026-04-29 20:56 47.57278 45.58294 33181 ft 478 kts 328°
2026-04-29 20:57 47.63302 45.53980 33186 ft 478 kts 328°
2026-04-29 20:57 47.69264 45.49700 33183 ft 478 kts 327°
2026-04-29 20:58 47.75251 45.45390 33195 ft 477 kts 327°
2026-04-29 20:58 47.80880 45.40425 33182 ft 466 kts 315°
2026-04-29 20:59 47.85696 45.34103 33183 ft 460 kts 310°
2026-04-29 20:59 47.90449 45.27706 33190 ft 460 kts 310°
2026-04-29 21:00 47.95203 45.21277 33195 ft 460 kts 310°
2026-04-29 21:00 47.99940 45.14841 33194 ft 460 kts 310°
2026-04-29 21:01 48.04956 45.08886 33198 ft 469 kts 319°
2026-04-29 21:01 48.10379 45.03465 33198 ft 468 kts 319°
2026-04-29 21:02 48.15791 44.98018 33195 ft 468 kts 319°
2026-04-29 21:02 48.21190 44.92573 33200 ft 468 kts 319°
2026-04-29 21:03 48.26592 44.87114 33201 ft 468 kts 319°
2026-04-29 21:03 48.31988 44.81646 33266 ft 469 kts 319°
2026-04-29 21:03 48.34632 44.78962 33628 ft 468 kts 319°
2026-04-29 21:04 48.37329 44.76223 34034 ft 467 kts 319°
2026-04-29 21:04 48.40015 44.73490 34194 ft 466 kts 319°
2026-04-29 21:04 48.42699 44.70757 34197 ft 463 kts 319°
2026-04-29 21:05 48.48032 44.65310 34193 ft 464 kts 318°
2026-04-29 21:05 48.53334 44.59880 34211 ft 464 kts 318°
2026-04-29 21:06 48.58672 44.54402 34206 ft 464 kts 318°
2026-04-29 21:06 48.64007 44.48912 34206 ft 464 kts 318°
2026-04-29 21:07 48.69340 44.43411 34190 ft 464 kts 318°
2026-04-29 21:07 48.74670 44.37897 34183 ft 464 kts 318°
2026-04-29 21:08 48.80372 44.33095 34183 ft 476 kts 332°
2026-04-29 21:08 48.86610 44.29569 34181 ft 478 kts 333°
2026-04-29 21:09 48.92842 44.26027 34187 ft 478 kts 333°
2026-04-29 21:09 48.99074 44.22484 34191 ft 479 kts 333°
2026-04-29 21:10 49.05322 44.18929 34199 ft 479 kts 333°
2026-04-29 21:10 49.11565 44.15368 34204 ft 479 kts 333°
2026-04-29 21:11 49.17808 44.11796 34210 ft 479 kts 333°
2026-04-29 21:11 49.24044 44.08219 34208 ft 480 kts 333°
2026-04-29 21:12 49.30274 44.04636 34213 ft 479 kts 333°
2026-04-29 21:12 49.36509 44.01041 34209 ft 479 kts 333°
2026-04-29 21:13 49.42734 43.97442 34208 ft 479 kts 333°
2026-04-29 21:13 49.49003 43.93806 34208 ft 478 kts 333°
2026-04-29 21:14 49.54923 43.89504 34200 ft 470 kts 324°
2026-04-29 21:14 49.60671 43.84692 34204 ft 469 kts 325°
2026-04-29 21:15 49.66410 43.79897 34197 ft 469 kts 324°
2026-04-29 21:15 49.72144 43.75079 34184 ft 468 kts 324°
2026-04-29 21:16 49.77822 43.70288 34193 ft 467 kts 324°
2026-04-29 21:16 49.83520 43.65467 34191 ft 467 kts 324°
2026-04-29 21:17 49.89249 43.60607 34187 ft 467 kts 324°
2026-04-29 21:17 49.94947 43.55760 34190 ft 467 kts 325°
2026-04-29 21:18 50.00646 43.50899 34185 ft 467 kts 324°
2026-04-29 21:18 50.06322 43.46045 34185 ft 468 kts 325°
2026-04-29 21:19 50.12049 43.41134 34189 ft 468 kts 325°
2026-04-29 21:19 50.17744 43.36237 34197 ft 469 kts 325°
2026-04-29 21:20 50.23433 43.31332 34196 ft 469 kts 325°
2026-04-29 21:20 50.29178 43.26364 34203 ft 470 kts 325°
2026-04-29 21:21 50.34893 43.21409 34200 ft 470 kts 325°
2026-04-29 21:21 50.40645 43.16408 34214 ft 470 kts 325°
2026-04-29 21:22 50.46327 43.11454 34216 ft 470 kts 325°
2026-04-29 21:22 50.52061 43.06441 34211 ft 470 kts 325°
2026-04-29 21:23 50.57749 43.01455 34211 ft 470 kts 325°
2026-04-29 21:23 50.63468 42.96426 34207 ft 470 kts 325°
2026-04-29 21:24 50.69200 42.91471 34203 ft 472 kts 329°
2026-04-29 21:24 50.75395 42.87806 34196 ft 476 kts 335°
2026-04-29 21:25 50.81615 42.84335 34192 ft 476 kts 335°
2026-04-29 21:25 50.87858 42.80842 34195 ft 476 kts 335°
2026-04-29 21:26 50.94127 42.77329 34194 ft 476 kts 335°
2026-04-29 21:26 51.00331 42.73844 34191 ft 476 kts 335°
2026-04-29 21:27 51.05554 42.70903 34194 ft 476 kts 335°
2026-04-29 21:27 51.12832 42.66791 34191 ft 477 kts 335°
2026-04-29 21:28 51.19096 42.63243 34194 ft 477 kts 335°
2026-04-29 21:28 51.25317 42.59708 34190 ft 477 kts 335°
2026-04-29 21:29 51.31588 42.56134 34194 ft 478 kts 335°
2026-04-29 21:29 51.37849 42.52556 34196 ft 478 kts 335°
2026-04-29 21:30 51.44130 42.48956 34203 ft 479 kts 335°
2026-04-29 21:30 51.50396 42.45354 34205 ft 479 kts 335°
2026-04-29 21:31 51.56684 42.41729 34209 ft 479 kts 335°
2026-04-29 21:31 51.62922 42.38122 34204 ft 480 kts 335°
2026-04-29 21:32 51.69196 42.34484 34211 ft 479 kts 335°
2026-04-29 21:32 51.75476 42.30831 34214 ft 479 kts 335°
2026-04-29 21:33 51.81769 42.27160 34209 ft 478 kts 335°
2026-04-29 21:33 51.88013 42.23507 34212 ft 478 kts 335°
2026-04-29 21:34 51.94251 42.19846 34211 ft 477 kts 335°
2026-04-29 21:34 52.00471 42.16185 34212 ft 476 kts 336°
2026-04-29 21:35 52.06683 42.12518 34209 ft 475 kts 336°
2026-04-29 21:35 52.12872 42.08906 34210 ft 474 kts 337°
2026-04-29 21:36 52.19105 42.05499 34206 ft 473 kts 338°
2026-04-29 21:36 52.25343 42.02082 34204 ft 472 kts 337°
2026-04-29 21:37 52.31543 41.98647 34197 ft 471 kts 337°
2026-04-29 21:37 52.37925 41.96128 34192 ft 475 kts 350°
2026-04-29 21:38 52.44562 41.95948 34186 ft 478 kts 359°
2026-04-29 21:38 52.51228 41.96283 34185 ft 477 kts 359°
2026-04-29 21:39 52.57858 41.96622 34187 ft 477 kts 359°
2026-04-29 21:39 52.64493 41.96980 34191 ft 477 kts 359°
2026-04-29 21:39 52.67783 41.96800 34191 ft 473 kts 348°
2026-04-29 21:40 52.70955 41.95557 34183 ft 467 kts 336°
2026-04-29 21:40 52.73871 41.93283 34178 ft 460 kts 324°
2026-04-29 21:40 52.76423 41.90164 34180 ft 456 kts 317°
2026-04-29 21:41 52.80469 41.84560 34184 ft 456 kts 316°
2026-04-29 21:41 52.85367 41.77816 34186 ft 457 kts 317°
2026-04-29 21:42 52.90280 41.71143 34192 ft 458 kts 317°
2026-04-29 21:42 52.95212 41.64450 34202 ft 459 kts 317°
2026-04-29 21:43 53.00123 41.57767 34202 ft 459 kts 317°
2026-04-29 21:43 53.05070 41.51013 34207 ft 460 kts 317°
2026-04-29 21:44 53.10017 41.44237 34211 ft 460 kts 317°
2026-04-29 21:44 53.14944 41.37468 34213 ft 460 kts 317°
2026-04-29 21:45 53.19917 41.30713 34212 ft 461 kts 321°
2026-04-29 21:45 53.25515 41.25557 34204 ft 465 kts 336°
2026-04-29 21:46 53.31678 41.22262 34202 ft 466 kts 340°
2026-04-29 21:46 53.37923 41.19050 34200 ft 466 kts 340°
2026-04-29 21:47 53.44091 41.15882 34189 ft 465 kts 341°
2026-04-29 21:47 53.50290 41.12697 34189 ft 465 kts 341°
2026-04-29 21:48 53.56457 41.09520 34195 ft 464 kts 341°
2026-04-29 21:48 53.62631 41.06330 34192 ft 464 kts 341°
2026-04-29 21:49 53.68406 41.01771 34186 ft 456 kts 320°
2026-04-29 21:49 53.70714 40.98174 34179 ft 451 kts 308°
2026-04-29 21:49 53.72528 40.93880 34178 ft 447 kts 296°
2026-04-29 21:50 53.75070 40.84403 34171 ft 445 kts 291°
2026-04-29 21:50 53.77550 40.74801 34174 ft 445 kts 291°
2026-04-29 21:51 53.80025 40.65162 34175 ft 446 kts 291°
2026-04-29 21:51 53.83703 40.50744 34185 ft 447 kts 291°
2026-04-29 21:52 53.86164 40.41045 34187 ft 447 kts 291°
2026-04-29 21:52 53.88611 40.31364 34192 ft 448 kts 291°
2026-04-29 21:53 53.91070 40.21636 34198 ft 449 kts 291°
2026-04-29 21:53 53.93522 40.11898 34090 ft 449 kts 291°
2026-04-29 21:54 53.94744 40.07028 33765 ft 448 kts 291°
2026-04-29 21:54 53.95965 40.02146 33024 ft 450 kts 292°
2026-04-29 21:54 53.97185 39.97259 32320 ft 448 kts 292°
2026-04-29 21:54 53.98378 39.92465 31773 ft 445 kts 292°
2026-04-29 21:55 53.99557 39.87724 31254 ft 443 kts 292°
2026-04-29 21:55 54.00748 39.82919 30719 ft 441 kts 292°
2026-04-29 21:55 54.01935 39.78123 30147 ft 439 kts 292°
2026-04-29 21:55 54.03112 39.73354 29575 ft 435 kts 292°
2026-04-29 21:56 54.04276 39.68632 28874 ft 433 kts 292°
2026-04-29 21:56 54.05448 39.63865 27955 ft 437 kts 292°
2026-04-29 21:56 54.06577 39.59262 27389 ft 433 kts 292°
2026-04-29 21:56 54.07695 39.54695 27083 ft 423 kts 292°
2026-04-29 21:57 54.08846 39.49991 26674 ft 416 kts 294°
2026-04-29 21:57 54.10289 39.45779 26273 ft 407 kts 309°
2026-04-29 21:57 54.12256 39.42425 26007 ft 396 kts 323°
2026-04-29 21:57 54.14614 39.40041 25756 ft 396 kts 338°
2026-04-29 21:58 54.17185 39.38262 25501 ft 398 kts 338°
2026-04-29 21:58 54.19711 39.36519 25245 ft 395 kts 338°
2026-04-29 21:58 54.22252 39.34766 25003 ft 393 kts 338°
2026-04-29 21:58 54.24788 39.33015 24757 ft 392 kts 338°
2026-04-29 21:59 54.27316 39.31269 24430 ft 391 kts 338°
2026-04-29 21:59 54.29836 39.29526 23977 ft 390 kts 338°
2026-04-29 21:59 54.32344 39.27789 23449 ft 387 kts 338°
2026-04-29 21:59 54.34777 39.26102 22980 ft 381 kts 338°
2026-04-29 22:00 54.37216 39.24409 22518 ft 375 kts 338°
2026-04-29 22:00 54.39615 39.22743 22063 ft 369 kts 338°
2026-04-29 22:00 54.41978 39.21099 21606 ft 364 kts 337°
2026-04-29 22:00 54.44315 39.19472 21151 ft 359 kts 337°
2026-04-29 22:01 54.46620 39.17864 20706 ft 355 kts 337°
2026-04-29 22:01 54.48761 39.16369 20292 ft 351 kts 337°
2026-04-29 22:01 54.51012 39.14795 19852 ft 347 kts 337°
2026-04-29 22:01 54.53238 39.13238 19413 ft 343 kts 337°
2026-04-29 22:02 54.55415 39.11713 18991 ft 340 kts 336°
2026-04-29 22:02 54.57603 39.10178 18553 ft 337 kts 336°
2026-04-29 22:02 54.59768 39.08657 18105 ft 334 kts 336°
2026-04-29 22:02 54.61905 39.07155 17681 ft 329 kts 336°
2026-04-29 22:03 54.64010 39.05673 17262 ft 325 kts 336°
2026-04-29 22:03 54.66097 39.04202 16852 ft 324 kts 336°
2026-04-29 22:03 54.68099 39.02788 16454 ft 321 kts 336°
2026-04-29 22:03 54.68218 39.02704 16428 ft 321 kts 336°
2026-04-29 22:04 54.69775 39.01604 16128 ft 318 kts 336°
2026-04-29 22:04 54.71816 39.00161 15723 ft 317 kts 336°
2026-04-29 22:04 54.73848 38.98722 15319 ft 314 kts 336°
2026-04-29 22:05 54.75866 38.97292 14882 ft 312 kts 336°
2026-04-29 22:05 54.77927 38.96177 14455 ft 311 kts 345°
2026-04-29 22:05 54.82115 38.94578 13648 ft 305 kts 346°
2026-04-29 22:06 54.84176 38.93798 13256 ft 302 kts 346°
2026-04-29 22:06 54.86223 38.93020 12866 ft 302 kts 346°
2026-04-29 22:06 54.88267 38.92239 12472 ft 299 kts 346°
2026-04-29 22:06 54.90284 38.91465 12084 ft 296 kts 346°
2026-04-29 22:07 54.92296 38.90692 11702 ft 296 kts 346°
2026-04-29 22:07 54.94293 38.89923 11323 ft 293 kts 346°
2026-04-29 22:07 54.96275 38.89159 10944 ft 290 kts 346°
2026-04-29 22:07 54.98247 38.88398 10501 ft 292 kts 346°
2026-04-29 22:08 55.00226 38.87634 10157 ft 288 kts 346°
2026-04-29 22:08 55.02144 38.86894 10015 ft 277 kts 347°
2026-04-29 22:08 55.04007 38.86175 9803 ft 271 kts 346°
2026-04-29 22:08 55.05839 38.85465 9657 ft 275 kts 346°
2026-04-29 22:09 55.07721 38.84736 9342 ft 277 kts 346°
2026-04-29 22:09 55.09592 38.84010 9000 ft 274 kts 346°
2026-04-29 22:09 55.11436 38.83295 8666 ft 270 kts 346°
2026-04-29 22:09 55.13259 38.82587 8329 ft 266 kts 346°
2026-04-29 22:10 55.15054 38.81890 7999 ft 262 kts 346°
2026-04-29 22:10 55.16826 38.81200 7676 ft 259 kts 346°
2026-04-29 22:10 55.18573 38.80519 7354 ft 256 kts 346°
2026-04-29 22:10 55.20291 38.79849 7129 ft 248 kts 346°
2026-04-29 22:11 55.21931 38.79150 7009 ft 237 kts 338°
2026-04-29 22:11 55.23350 38.77740 6865 ft 237 kts 319°
2026-04-29 22:11 55.24497 38.75623 6575 ft 241 kts 311°
2026-04-29 22:11 55.25608 38.73431 6263 ft 239 kts 312°
2026-04-29 22:12 55.26708 38.71277 5973 ft 235 kts 312°
2026-04-29 22:12 55.27793 38.69157 5681 ft 231 kts 312°
2026-04-29 22:12 55.28858 38.67080 5397 ft 227 kts 313°
2026-04-29 22:12 55.29903 38.65038 5120 ft 223 kts 313°
2026-04-29 22:13 55.30922 38.63046 4841 ft 221 kts 313°
2026-04-29 22:13 55.31965 38.61003 4562 ft 222 kts 313°
2026-04-29 22:13 55.32910 38.59155 4300 ft 219 kts 313°
2026-04-29 22:13 55.33894 38.57228 4046 ft 220 kts 313°
2026-04-29 22:14 55.34899 38.55252 3767 ft 218 kts 313°
2026-04-29 22:14 55.35903 38.53278 3489 ft 215 kts 313°
2026-04-29 22:14 55.36906 38.51305 3217 ft 217 kts 313°
2026-04-29 22:14 55.37903 38.49341 2950 ft 214 kts 313°
2026-04-29 22:15 55.38896 38.47386 2687 ft 214 kts 313°
2026-04-29 22:15 55.39884 38.45439 2415 ft 212 kts 313°
2026-04-29 22:15 55.40871 38.43493 2155 ft 212 kts 313°
2026-04-29 22:15 55.41844 38.41573 1988 ft 214 kts 313°
2026-04-29 22:16 55.42819 38.39649 1979 ft 202 kts 313°
2026-04-29 22:16 55.43714 38.37879 1981 ft 188 kts 313°
2026-04-29 22:16 55.44604 38.36125 1985 ft 192 kts 313°
2026-04-29 22:16 55.45487 38.34379 1987 ft 190 kts 313°
2026-04-29 22:17 55.46315 38.32740 1974 ft 166 kts 313°
2026-04-29 22:17 55.47001 38.31381 1988 ft 145 kts 313°
2026-04-29 22:17 55.47677 38.30048 1982 ft 145 kts 313°
2026-04-29 22:17 55.48344 38.28728 1989 ft 144 kts 313°
2026-04-29 22:18 55.49005 38.27420 1961 ft 143 kts 313°
2026-04-29 22:18 55.49667 38.26108 1741 ft 142 kts 313°
2026-04-29 22:18 55.50862 38.23740 1340 ft 143 kts 312°
2026-04-29 22:19 55.51523 38.22430 1092 ft 143 kts 312°
2026-04-29 22:19 55.52183 38.21121 869 ft 143 kts 311°
2026-04-29 22:19 55.52847 38.19805 669 ft 144 kts 311°
2026-04-29 22:19 55.53515 38.18494 472 ft 144 kts 310°
2026-04-29 22:20 55.54161 38.17219 396 ft 128 kts 311°
2026-04-29 22:20 55.54614 38.16312 394 ft 70 kts 310°
2026-04-29 22:20 55.54879 38.15791 392 ft 53 kts 313°
2026-04-29 22:20 55.55108 38.15335 394 ft 43 kts 311°
2026-04-29 22:21 55.55293 38.14955 395 ft 39 kts 310°
2026-04-29 22:21 55.55461 38.14603 395 ft 36 kts 310°
2026-04-29 22:21 55.55635 38.14293 394 ft 35 kts 311°
2026-04-29 22:21 55.55790 38.13980 395 ft 33 kts 311°
2026-04-29 22:22 55.55933 38.13688 396 ft 32 kts 311°
2026-04-29 22:22 55.56076 38.13398 394 ft 31 kts 311°
2026-04-29 22:22 55.56186 38.13179 394 ft 13 kts 311°
2026-04-29 22:22 55.56236 38.13056 394 ft 12 kts 283°
2026-04-29 22:23 55.56200 38.12934 394 ft 12 kts 219°
2026-04-29 22:23 55.56136 38.12839 396 ft 12 kts 221°
2026-04-29 22:23 55.56105 38.12711 396 ft 12 kts 292°
2026-04-29 22:23 55.56159 38.12605 394 ft 12 kts 314°
2026-04-29 22:24 55.56218 38.12497 396 ft 13 kts 312°
2026-04-29 22:24 55.56277 38.12377 395 ft 13 kts 309°
2026-04-29 22:24 55.56338 38.12250 395 ft 14 kts 312°
2026-04-29 22:24 55.56392 38.12132 395 ft 5 kts 265°
2026-04-29 22:25 55.56368 38.12082 396 ft 6 kts 223°
2026-04-29 22:25 55.56341 38.12037 395 ft 0 kts 223°